Location: Vale
(35.4830°N, 81.3830°W)
Time: 04:42:54
(UTC-05:00)

Cosmos 2237 Rocket - Visible Passes

Search period start: 20 December 2014 00:00
Search period end: 30 December 2014 00:00
Orbit: 837 x 849 km, 71.0° (Epoch: 19 December)

Date Brightness Start Highest point End Pass type
(mag) Time Alt. Az. Time Alt. Az. Time Alt. Az.
20 Dec 3.0 06:43:17 10° S 06:48:45 57° ESE 06:54:15 10° NNE visible
21 Dec 3.1 06:28:34 10° S 06:34:00 54° ESE 06:39:28 10° NNE visible
22 Dec 3.2 06:13:51 10° S 06:19:15 51° ESE 06:24:40 10° NNE visible
23 Dec 3.2 05:59:08 10° S 06:04:30 48° ESE 06:09:52 10° NNE visible
24 Dec 3.3 05:44:26 10° S 05:49:45 46° ESE 05:55:04 10° NE visible
25 Dec 3.4 05:29:44 10° S 05:34:59 43° ESE 05:40:16 10° NE visible
26 Dec 3.4 05:15:02 10° S 05:20:14 41° ESE 05:25:27 10° NE visible
26 Dec 3.2 06:59:53 10° WSW 07:04:24 24° WNW 07:08:56 10° N visible
27 Dec 3.5 05:00:20 10° S 05:05:29 39° ESE 05:10:38 10° NE visible
27 Dec 3.1 06:45:00 10° WSW 06:49:36 26° WNW 06:54:14 10° N visible
28 Dec 3.5 04:45:38 10° S 04:50:43 37° ESE 04:55:49 10° NE visible
28 Dec 3.0 06:30:07 10° WSW 06:34:48 27° WNW 06:39:31 10° N visible
29 Dec 3.6 04:34:01 27° SE 04:35:58 35° ESE 04:41:00 10° NE visible
29 Dec 3.0 06:16:14 14° WSW 06:20:00 28° WNW 06:24:48 10° N visible
